When you browse on this site, cookies collect data to enhance your experience and personalize the content and advertising you see.
Visit our Privacy Policy to learn more. By continuing to use the site, you agree to this use of cookies and data.
  • In Hungary
  • List of Countries
  • For 7 days
  • Water Temperature
  • Satellite Maps
  • Weather Map
  • News
  • Weather Widgets
  • user-avatar
    Login

    Hourly Weather Alcarras

    Today, 21 April, Sunday

    Time Temperature Precipitation Wind Pressure Humidity
    00:00 +11°C° 0.6 mm 3 mps 749 mmHg 81%
    01:00 +11°C° 0.2 mm 3 mps 749 mmHg 82%
    02:00 +11°C° 0.2 mm 3 mps 748 mmHg 82%
    03:00 +12°C° 0.2 mm 2 mps 748 mmHg 83%
    04:00 +12°C° 0.1 mm 2 mps 747 mmHg 82%
    05:00 +12°C° 0.1 mm 2 mps 747 mmHg 81%
    06:00 +12°C° 0.1 mm 2 mps 747 mmHg 80%
    07:00 +13°C° 0.1 mm 2 mps 746 mmHg 76%
    08:00 +13°C° 0.1 mm 3 mps 746 mmHg 72%
    09:00 +14°C° 0.1 mm 3 mps 746 mmHg 68%
    10:00 +14°C° 0.1 mm 4 mps 746 mmHg 65%
    11:00 +15°C° 0.1 mm 5 mps 745 mmHg 61%
    12:00 +16°C° 0.1 mm 6 mps 745 mmHg 57%
    13:00 +16°C° 0 mm 5 mps 745 mmHg 57%
    14:00 +16°C° 0 mm 5 mps 744 mmHg 57%
    15:00 +18°C° 0 mm 4 mps 744 mmHg 57%
    16:00 +17°C° 0 mm 3 mps 744 mmHg 60%
    17:00 +16°C° 0 mm 3 mps 743 mmHg 64%
    18:00 +16°C° 0 mm 2 mps 743 mmHg 67%
    19:00 +15°C° 0 mm 2 mps 743 mmHg 68%
    20:00 +15°C° 0 mm 2 mps 743 mmHg 69%
    21:00 +14°C° 0 mm 2 mps 743 mmHg 70%
    22:00 +14°C° 0 mm 2 mps 743 mmHg 72%
    23:00 +13°C° 0 mm 2 mps 742 mmHg 75%

    Tomorrow, 22 April, Monday

    Time Temperature Precipitation Wind Pressure Humidity
    00:00 +13°C° 0 mm 2 mps 742 mmHg 77%
    01:00 +12°C° 0 mm 2 mps 741 mmHg 78%
    02:00 +12°C° 0 mm 2 mps 740 mmHg 80%
    03:00 +12°C° 0 mm 2 mps 740 mmHg 81%
    04:00 +12°C° 0 mm 1 mps 739 mmHg 80%
    05:00 +12°C° 0 mm 1 mps 739 mmHg 79%
    06:00 +11°C° 0 mm 0 mps 739 mmHg 78%
    07:00 +13°C° 0.1 mm 1 mps 739 mmHg 75%
    08:00 +14°C° 0.1 mm 1 mps 738 mmHg 73%
    09:00 +14°C° 0.1 mm 2 mps 738 mmHg 70%
    10:00 +15°C° 0.1 mm 2 mps 738 mmHg 67%
    11:00 +16°C° 0.1 mm 2 mps 738 mmHg 63%
    12:00 +17°C° 0.1 mm 2 mps 737 mmHg 60%
    13:00 +17°C° 0 mm 2 mps 737 mmHg 58%
    14:00 +18°C° 0 mm 2 mps 737 mmHg 56%
    15:00 +18°C° 0 mm 2 mps 736 mmHg 54%
    16:00 +18°C° 0 mm 2 mps 736 mmHg 57%
    17:00 +17°C° 0 mm 3 mps 736 mmHg 61%
    18:00 +16°C° 0 mm 3 mps 736 mmHg 65%
    19:00 +16°C° 0 mm 2 mps 736 mmHg 69%
    20:00 +15°C° 0 mm 1 mps 736 mmHg 73%
    21:00 +13°C° 0 mm 0 mps 737 mmHg 77%
    22:00 +14°C° 0 mm 1 mps 736 mmHg 78%
    23:00 +14°C° 0 mm 1 mps 736 mmHg 79%

    Day after tomorrow, 23 April, Tuesday

    Time Temperature Precipitation Wind Pressure Humidity
    00:00 +13°C° 0 mm 1 mps 736 mmHg 80%
    01:00 +13°C° 0 mm 1 mps 735 mmHg 81%
    02:00 +13°C° 0 mm 1 mps 735 mmHg 82%
    03:00 +13°C° 0 mm 2 mps 735 mmHg 82%
    04:00 +13°C° 0 mm 2 mps 734 mmHg 82%
    05:00 +13°C° 0 mm 2 mps 734 mmHg 81%
    06:00 +13°C° 0 mm 2 mps 734 mmHg 81%
    07:00 +15°C° 0 mm 1 mps 734 mmHg 72%
    08:00 +18°C° 0 mm 1 mps 734 mmHg 62%
    09:00 +19°C° 0 mm 1 mps 735 mmHg 53%
    10:00 +20°C° 0 mm 2 mps 735 mmHg 49%
    11:00 +21°C° 0 mm 3 mps 735 mmHg 45%
    12:00 +22°C° 0 mm 4 mps 735 mmHg 40%
    13:00 +21°C° 0.4 mm 3 mps 735 mmHg 47%
    14:00 +19°C° 0.4 mm 2 mps 735 mmHg 53%
    15:00 +18°C° 0.4 mm 2 mps 735 mmHg 59%
    16:00 +19°C° 0.5 mm 1 mps 735 mmHg 63%
    17:00 +18°C° 0.5 mm 1 mps 735 mmHg 66%
    18:00 +18°C° 0.5 mm 1 mps 735 mmHg 69%
    19:00 +16°C° 0.1 mm 1 mps 736 mmHg 70%
    20:00 +14°C° 0.1 mm 1 mps 737 mmHg 72%
    21:00 +13°C° 0.1 mm 1 mps 738 mmHg 73%
    22:00 +13°C° 0.1 mm 2 mps 739 mmHg 71%
    23:00 +12°C° 0.1 mm 2 mps 739 mmHg 69%

    24 April, Wednesday

    Time Temperature Precipitation Wind Pressure Humidity
    00:00 +10°C° 0.1 mm 3 mps 739 mmHg 67%
    01:00 +10°C° 0 mm 3 mps 740 mmHg 67%
    02:00 +9°C° 0 mm 3 mps 740 mmHg 67%
    03:00 +9°C° 0 mm 3 mps 740 mmHg 67%
    04:00 +9°C° 0 mm 3 mps 741 mmHg 68%
    05:00 +9°C° 0 mm 2 mps 741 mmHg 69%
    06:00 +9°C° 0 mm 2 mps 742 mmHg 70%
    07:00 +12°C° 0 mm 2 mps 742 mmHg 61%
    08:00 +13°C° 0 mm 3 mps 742 mmHg 53%
    09:00 +15°C° 0 mm 4 mps 743 mmHg 45%
    10:00 +17°C° 0 mm 4 mps 743 mmHg 40%
    11:00 +19°C° 0 mm 4 mps 743 mmHg 35%
    12:00 +20°C° 0 mm 3 mps 743 mmHg 30%
    13:00 +21°C° 0 mm 4 mps 743 mmHg 29%
    14:00 +21°C° 0 mm 4 mps 742 mmHg 29%
    15:00 +22°C° 0 mm 4 mps 742 mmHg 28%
    16:00 +21°C° 0 mm 5 mps 742 mmHg 34%
    17:00 +20°C° 0 mm 6 mps 742 mmHg 40%
    18:00 +19°C° 0 mm 6 mps 742 mmHg 45%
    19:00 +16°C° 0 mm 6 mps 743 mmHg 50%
    20:00 +15°C° 0 mm 5 mps 743 mmHg 54%
    21:00 +14°C° 0 mm 5 mps 744 mmHg 58%
    22:00 +14°C° 0 mm 4 mps 744 mmHg 64%
    23:00 +13°C° 0 mm 4 mps 744 mmHg 69%

    25 April, Thursday

    Time Temperature Precipitation Wind Pressure Humidity
    00:00 +13°C° 0 mm 3 mps 744 mmHg 75%
    01:00 +12°C° 0 mm 3 mps 744 mmHg 76%
    02:00 +12°C° 0 mm 3 mps 744 mmHg 78%
    03:00 +13°C° 0 mm 2 mps 743 mmHg 79%
    04:00 +13°C° 0 mm 2 mps 744 mmHg 78%
    05:00 +14°C° 0 mm 2 mps 744 mmHg 76%
    06:00 +14°C° 0 mm 2 mps 744 mmHg 74%
    07:00 +16°C° 0 mm 3 mps 745 mmHg 64%
    08:00 +19°C° 0 mm 5 mps 745 mmHg 54%
    09:00 +21°C° 0 mm 6 mps 746 mmHg 43%
    10:00 +22°C° 0 mm 7 mps 746 mmHg 40%
    11:00 +23°C° 0 mm 7 mps 746 mmHg 37%
    12:00 +23°C° 0 mm 8 mps 746 mmHg 34%
    13:00 +24°C° 0 mm 8 mps 746 mmHg 32%
    14:00 +24°C° 0 mm 7 mps 746 mmHg 31%
    15:00 +24°C° 0 mm 7 mps 746 mmHg 29%
    16:00 +23°C° 0 mm 6 mps 746 mmHg 32%
    17:00 +22°C° 0 mm 6 mps 747 mmHg 36%
    18:00 +20°C° 0 mm 5 mps 747 mmHg 39%
    19:00 +19°C° 0 mm 4 mps 748 mmHg 45%
    20:00 +17°C° 0 mm 3 mps 749 mmHg 50%
    21:00 +14°C° 0 mm 3 mps 750 mmHg 55%
    22:00 +14°C° 0 mm 2 mps 750 mmHg 56%
    23:00 +14°C° 0 mm 2 mps 750 mmHg 56%

    26 April, Friday

    Time Temperature Precipitation Wind Pressure Humidity
    00:00 +13°C° 0 mm 2 mps 751 mmHg 57%
    01:00 +12°C° 0 mm 2 mps 751 mmHg 58%
    02:00 +10°C° 0 mm 3 mps 751 mmHg 60%
    03:00 +10°C° 0 mm 3 mps 752 mmHg 61%
    04:00 +10°C° 0 mm 3 mps 752 mmHg 62%
    05:00 +10°C° 0 mm 4 mps 753 mmHg 63%
    06:00 +10°C° 0 mm 4 mps 753 mmHg 64%
    07:00 +12°C° 0 mm 4 mps 753 mmHg 57%
    08:00 +14°C° 0 mm 5 mps 754 mmHg 49%
    09:00 +16°C° 0 mm 6 mps 754 mmHg 42%
    10:00 +19°C° 0 mm 6 mps 754 mmHg 37%
    11:00 +20°C° 0 mm 6 mps 754 mmHg 33%
    12:00 +22°C° 0 mm 6 mps 754 mmHg 28%
    13:00 +22°C° 0 mm 5 mps 754 mmHg 28%
    14:00 +23°C° 0 mm 5 mps 753 mmHg 27%
    15:00 +23°C° 0 mm 5 mps 753 mmHg 27%
    16:00 +22°C° 0 mm 4 mps 753 mmHg 30%
    17:00 +21°C° 0 mm 4 mps 754 mmHg 33%
    18:00 +21°C° 0 mm 3 mps 754 mmHg 37%
    19:00 +19°C° 0 mm 3 mps 754 mmHg 44%
    20:00 +17°C° 0 mm 3 mps 755 mmHg 51%
    21:00 +14°C° 0 mm 3 mps 756 mmHg 59%
    22:00 +13°C° 0 mm 3 mps 756 mmHg 68%
    23:00 +12°C° 0 mm 3 mps 756 mmHg 77%
    Show more